Location: *
(51.1248°S, 108.4023°W)
Time: 09:20:36
(UTC+00:00)

Envisat - Pass Details

Date: 01 October 2021
Orbit: 764 x 766 km, 98.2° (Epoch: 27 October)

Event Time Altitude Azimuth Distance (km) Brightness Sun altitude
Rises 10:41:30 0° 34° (NE) 3,235 6.3 -18.5°
Reaches altitude 10° 10:43:51 10° 39° (NE) 2,317 5.6 -18.2°
Maximum altitude 10:48:45 49° 112° (ESE) 1,002 4.0 -17.5°
Drops below altitude 10° 10:53:43 10° 185° (S) 2,344 5.8 -16.8°
Sets 10:56:06 0° 190° (S) 3,278 6.5 -16.5°
